Regional Weather Roundup
Issued by NWS

Home | Current Version | Previous Version | Graphics & Text | Print | Product List | Glossary On
Versions: 1 2 3 4 5 6 7 8 9 10 11 12 13 14 15 16 17 18 19 20 21 22 23 24 25 26 27 28 29 30 31 32 33 34 35 36 37 38 39 40 41 42 43 44 45 46 47 48 49 50
000
ASUS44 KMEG 120010
RWRTN
TENNESSEE HOURLY STATE WEATHER ROUNDUP
NATIONAL WEATHER SERVICE MEMPHIS TN
700 PM CDT FRI JUL 11 2014

TNZ002-004-019-021-049-052-054-088>092-120100-
WEST TENNESSEE

CITY           SKY/WX    TMP DP  RH WIND       PRES   REMARKS
MEMPHIS INTL   MOSUNNY   83  70  64 SW3       30.12S
NWS MEMPHIS      N/A     83 N/A N/A MISG        N/A
JACKSON        SUNNY     86  68  54 CALM      30.12R
DYERSBURG      SUNNY     90  64  43 CALM      30.11S HX  91
UNION CITY     SUNNY     88  66  48 W3        30.11R HX  90
PARIS          SUNNY     87  70  57 CALM      30.13R HX  92
LEXINGTON      SUNNY     86  66  51 CALM      30.12R
$$

TNZ008-025-027-028-033-062-065-066-120100-
NORTH MIDDLE TENNESSEE

CITY           SKY/WX    TMP DP  RH WIND       PRES   REMARKS
NASHVILLE      MOSUNNY   90  58  33 CALM      30.12R
DICKSON        SUNNY     84  66  54 NW5       30.13S
PORTLAND       SUNNY     86  63  45 NE3       30.12S
CLARKSVILLE    MOSUNNY   87  63  44 W6        30.11S
SMYRNA         MOSUNNY   94  62  34 S6        30.12R HX  94
MURFREESBORO   SUNNY     88  56  33 E6        30.11
COOKEVILLE     SUNNY     84  70  61 CALM      30.15R
LIVINGSTON     SUNNY     85  54  34 NE5       30.16S
GALLATIN       SUNNY     90  63  40 E5        30.13R HX  91
CROSSVILLE     SUNNY     82  60  47 NE6       30.20S
$$

TNZ061-075-076-078-094-096-097-120100-
SOUTH MIDDLE TENNESSEE

CITY           SKY/WX    TMP DP  RH WIND       PRES   REMARKS
LEWISBURG      SUNNY     89  60  37 CALM      30.12R
TULLAHOMA      SUNNY     84  59  42 N5        30.16R
WINCHESTER     SUNNY     88  64  45 CALM      30.14R
MCMINNVILLE    SUNNY     84  66  54 NE3       30.15R
COLUMBIA       SUNNY     88  68  51 NW3       30.11S HX  91
$$

TNZ017-018-042-046-047-120100-
NORTHEAST TENNESSEE

CITY           SKY/WX    TMP DP  RH WIND       PRES   REMARKS
TRI CITIES     PTCLDY    85  57  38 CALM      30.18R
ELIZABETHTON   CLEAR     77  64  65 CALM      30.18R
$$

TNZ012-013-036-069-073-074-120100-
CENTRAL EAST TENNESSEE

CITY           SKY/WX    TMP DP  RH WIND       PRES   REMARKS
KNOXVILLE      PTCLDY    85  61  44 E5        30.13R
OAK RIDGE      CLEAR     88  58  36 CALM      30.15R
$$

TNZ083-085-099-120100-
SOUTHEAST TENNESSEE

CITY           SKY/WX    TMP DP  RH WIND       PRES   REMARKS
CHATTANOOGA    PTCLDY    88  60  38 NE7       30.13R
$$

SKY/WX REPORTED AS FAIR MEANS FEW OR NO CLOUDS BELOW
12 THOUSAND FEET.



USA.gov is the U.S. government's official web portal to all federal, state and local government web resources and services.